Location: Unspecified
(0.0000°N, 0.0000°E)
Time: 01:18:51
(UTC+00:00)

Envisat - Pass Details

Date: 15 January 2021
Orbit: 764 x 766 km, 98.1° (Epoch: 16 January)

Event Time Altitude Azimuth Distance (km) Brightness Sun altitude
Rises 18:30:01 0° 204° (SSW) 3,229 7.0 -4.8°
Reaches altitude 10° 18:33:38 10° 231° (SW) 2,300 6.9 -5.6°
Maximum altitude 18:35:53 13° 257° (WSW) 2,093 6.9 -6.1°
Drops below altitude 10° 18:38:09 10° 284° (WNW) 2,295 6.4 -6.7°
Sets 18:41:46 0° 311° (NW) 3,217 6.6 -7.5°
